Cosmos 2219 Rocket - Orbit

View from above orbital plane
View from above orbital plane
View from above satellite
View from above satellite

Ground track
Ground track

The orbit data is extracted from the following two-line orbital elements,

1 22220U 92076B   13138.86274049 -.00000031  00000-0  86179-5 0   394
2 22220 071.0004 315.9233 0012236 014.0256 083.9385 14.16258012 59752
Epoch (UTC): 18 May 2013 20:42:20
Eccentricity: 0.0012236
inclination: 71.0004°
perigee height: 829 km
apogee height: 847 km
right ascension of ascending node: 315.9233°
argument of perigee: 14.0256°
revolutions per day: 14.16258012
mean anomaly at epoch: 83.9385°
orbit number at epoch: 5975

The dashed part of the orbit path shows where the satellite is in the earth's shadow,  

Developed and maintained by Chris Peat, Heavens-Above GmbH. Please read the updated FAQ before sending e-mail. Imprint. DLR